Reflectivity
-20 -20 -20 -20 -20 -20 -20 -20 -20 -20 -20 -20 -18 0 -18 -8 -20 -3 -20 -20 1 -20 -20 -20 -18 15 7 -20 -20 -1 1 -20 -20 -20 -20 -20 -20 -20 -20 -20 -20 -20 -20
-20 -20 -20 -20 -20 -20 -20 -20 -20 -20 -20 -12 2 -3 -9 -0 -20 -18 -20 -20 21 11 -18 3 -20 4 19 16 15 2 4 6 1 -8 -20 -20 -20 -20 -20 -20 -20 -20 -20
-20 -20 -20 -20 -20 -20 -20 -20 -20 -20 -17 -20 4 8 10 -1 -1 -20 -11 -17 -20 24 23 10 15 -19 15 17 18 21 11 6 9 7 2 -3 -4 -5 -20 -20 -20 -20 -20
-20 -20 -20 -20 -20 -20 -19 -20 -20 -20 -20 -17 -18 -19 6 7 -1 -2 -7 -20 -16 -20 -20 -20 12 -18 -20 -20 15 19 20 20 -5 4 9 5 -20 -11 -0 -20 -18 -20 -20
-20 -20 -20 -20 -20 -20 -20 -19 -3 2 -13 -20 -17 -9 -12 -5 19 -12 -2 -8 -0 22 -4 16 18 -2 -3 -18 20 22 23 21 21 22 17 15 3 -14 -8 -20 -11 -7 -19
-20 -20 -20 -20 -20 -9 -20 -20 -16 1 10 3 -20 -19 7 21 17 20 2 -1 -3 22 5 8 24 22 17 13 9 -13 20 28 27 26 23 13 24 6 15 -20 -20 -20 -20
-20 -20 -20 -20 -20 -20 -0 -7 -3 3 -9 11 13 -20 -20 8 1 19 5 5 7 26 -20 27 28 40 40 33 11 -5 4 9 19 21 34 29 22 25 -14 -20 -20 -5 -20
-20 -20 -20 -20 -20 -20 -20 -20 -3 5 -7 -15 15 20 -6 2 7 -20 -10 4 -1 18 19 19 28 27 22 18 -20 -20 7 28 10 25 34 34 31 17 -13 24 4 19 21
-20 -20 -20 -20 -20 -20 -9 -19 -10 2 -0 -4 11 25 10 19 29 -20 -5 17 21 23 35 30 23 11 -6 -7 -20 -20 -20 16 1 26 19 22 30 30 24 21 22 27 11
-20 -20 -20 -20 -20 -20 -20 -20 -20 -12 1 -18 -3 20 8 31 32 18 -20 -20 -15 26 11 14 -20 -8 -1 -7 -20 -20 -15 22 3 7 15 13 21 30 32 31 29 24 29
-20 -20 -20 -20 -20 -20 -20 -20 -20 -20 -3 1 1 12 -3 27 34 26 4 13 -20 1 0 -18 -18 25 5 -4 -20 -3 -20 -20 0 23 25 24 28 28 32 35 34 21 25
-20 -20 -20 -20 -20 -20 -20 -20 -20 -20 -20 12 -6 10 12 7 27 23 -14 -20 -20 -20 -6 26 31 29 22 5 18 12 24 21 -1 9 22 24 26 26 22 28 31 34 35
-20 -20 -20 -20 -20 -20 -20 -20 -20 -20 -20 -20 21 8 12 4 -1 18 -15 -20 -19 -14 -2 5 33 31 18 20 22 33 21 20 23 29 22 13 15 18 6 9 18 12 26
-20 -20 -20 -20 -20 -20 -20 -20 -20 -20 -20 -13 -20 -13 -1 -12 -20 -20 -3 -1 -20 -20 -2 -6 23 45 37 37 35 42 44 33 27 -11 2 3 21 18 12 8 14 8 -1
-20 -20 -20 -20 -20 -20 -20 -20 -20 -20 -20 -20 2 5 -17 -14 -20 -20 -20 -20 -5 -6 -7 -18 1 31 31 38 38 36 20 16 31 17 5 -6 -7 9 10 1 10 16 12
-20 -20 -20 -20 -20 -20 -20 -20 -20 -20 -20 -20 -20 -20 -20 -20 -20 -20 -20 -20 -20 -14 -20 -20 -9 15 30 25 35 30 33 30 12 -7 -6 -2 -17 -8 -20 -19 9 8 11
-20 -20 -20 -20 -20 -20 -20 -20 -20 -20 -20 -20 -20 -20 -20 -20 -20 -20 -20 -20 -20 -20 -20 -20 -4 10 17 30 34 26 31 3 -19 -20 -20 -20 -20 -20 -20 -20 -20 -5 6
-20 -20 -20 -20 -20 -20 -20 -20 -20 -20 -20 -20 -20 -20 -20 -20 -20 -20 -20 -20 -11 -2 -2 -5 -5 1 -4 8 17 16 9 12 5 -20 -20 -20 -20 -20 -20 -20 -20 -20 -8
-20 -20 -20 -20 -20 -20 -20 -20 -20 -20 -20 -20 -20 -20 -20 -20 -20 -20 -20 -20 -20 -20 -20 -20 -11 7 4 -7 -10 4 11 8 -4 -9 -20 -20 -20 -20 -20 -20 -20 -20 -20
-20 -20 -20 -20 -20 -20 -20 -20 -20 -20 -20 -20 -20 -20 -20 -20 -20 -20 -20 -20 -20 -20 -20 -20 -20 -20 -14 -5 -10 -14 -3 1 2 -1 -20 -20 -20 -20 -20 -20 -20 -20 -20
-20 -20 -20 -20 -20 -20 -20 -20 -20 -20 -20 -20 -20 -20 -20 -20 -20 -20 -20 -20 -20 -20 -20 -20 -20 -20 -20 -20 -20 -19 -1 -4 -15 -19 -20 -20 -20 -20 -20 -20 -20 -20 -20
-20 -20 -20 -20 -20 -20 -20 -20 -20 -20 -20 -20 -20 -20 -20 -20 -20 -20 -20 -20 -20 -20 -20 -20 -20 -20 -20 -20 -20 -20 -20 -20 -20 -20 -20 -20 -20 -20 -20 -20 -20 -20 -20
-20 -20 -20 -20 -20 -20 -20 -20 -20 -20 -20 -20 -20 -20 -20 -20 -20 -20 -20 -20 -20 -20 -20 -3 5 -11 -20 -20 -20 -20 -20 -20 -20 -20 -20 -20 -20 -20 -20 -20 -20 -19 10
-20 -20 -20 -20 -20 -20 -20 -20 -20 -20 -20 -20 -20 -20 -20 -20 -20 -20 -20 -20 -20 -20 -20 -20 -20 -20 -20 -20 -1 -2 -1 -20 -20 -20 -20 -20 -20 -20 -20 -20 -20 -20 -20
-20 -20 -20 -20 -10 -17 -20 -20 -20 -20 -20 -20 -20 -20 -20 -20 -20 -20 -20 -20 -20 -20 -20 -20 -20 -20 6 11 -13 6 2 -20 -20 -20 -20 -20 -20 -20 -20 -20 -20 -20 -20
-1 -20 1 5 -19 -20 -20 -20 -20 -20 -20 -20 -20 -20 -20 -20 -6 -6 -12 -1 7 -7 -20 -18 -19 -6 -20 -20 -20 -20 -20 -20 -20 -20 -20 -20 -20 -20 -20 -20 -20 -20 -20
Wind_Speed
6 6 6 5 6 6 7 7 8 8 10 10 11 13 14 13 14 9 8 14 19 20 22 22 22 22 22 21 20 18 17 17 17 15 15 15 14 14 14 14 13 13 12
6 6 7 7 7 7 7 7 8 8 9 10 11 13 14 13 13 14 10 10 19 19 21 22 23 23 23 22 21 20 18 18 18 17 17 16 16 16 15 15 15 14 14
7 7 6 6 7 8 10 7 8 7 8 8 11 11 10 14 12 14 12 10 11 19 20 23 24 23 22 23 23 21 20 19 19 18 18 17 16 16 17 17 16 16 16
11 9 7 7 9 8 8 8 9 8 9 9 10 9 8 10 13 14 10 10 9 10 16 22 23 24 23 24 24 23 21 20 20 20 20 19 18 18 18 18 18 17 17
11 9 7 7 9 8 8 9 9 10 9 9 10 10 9 9 11 11 12 12 12 11 9 15 21 21 20 23 25 25 24 19 19 19 21 21 20 20 20 20 20 19 19
11 9 8 9 9 8 8 9 9 11 11 11 10 11 10 11 11 12 11 10 11 13 11 12 10 11 17 21 24 25 25 23 18 18 18 20 21 21 21 22 22 22 22
11 9 8 9 8 9 9 11 10 10 9 10 10 10 10 11 14 12 8 9 12 13 12 11 8 7 8 18 18 18 18 17 13 12 14 16 19 21 22 23 23 23 23
10 9 10 9 10 7 9 11 11 8 8 9 9 10 8 9 10 11 8 9 12 9 10 12 12 12 10 9 12 16 20 21 21 20 18 16 17 21 21 24 25 24 23
10 10 10 9 9 8 6 8 9 11 7 9 9 6 6 8 4 4 9 8 8 7 9 11 11 10 13 10 9 10 14 17 20 23 21 19 20 20 21 24 24 25 23
10 10 10 10 9 7 9 9 8 8 9 10 9 9 14 12 7 5 2 4 5 6 7 6 7 9 11 9 11 11 12 15 19 23 24 25 25 25 26 27 28 24 25
9 11 10 10 9 7 9 9 11 11 8 7 8 8 8 10 1 2 3 1 2 6 7 8 7 7 8 8 6 4 11 12 15 19 20 19 20 20 25 26 25 24 23
6 9 10 9 8 9 10 9 10 9 9 8 9 7 7 4 5 4 3 3 5 5 7 10 8 7 9 9 9 11 11 10 7 5 6 9 12 13 14 14 13 16 21
4 8 9 9 8 9 9 9 9 8 9 7 8 7 7 6 5 5 4 4 3 3 3 11 11 12 12 8 11 11 15 13 9 7 10 12 13 13 12 13 16 17 16
5 8 8 8 9 9 9 9 7 8 8 7 9 7 5 6 6 6 4 4 4 2 3 3 7 9 8 9 13 17 5 15 14 15 15 14 12 11 9 10 12 14 17
5 7 7 8 7 8 9 9 7 9 9 8 7 7 6 5 5 5 5 4 3 3 5 7 5 10 7 3 14 10 9 13 14 14 13 13 13 12 14 13 12 13 13
5 6 6 6 6 7 8 8 7 9 9 7 7 9 8 7 7 7 6 5 5 2 2 4 5 6 7 7 12 10 11 12 14 15 15 14 12 15 15 16 15 15 15
4 4 5 6 6 6 7 7 7 8 8 9 10 10 10 10 7 6 6 6 7 7 5 3 4 5 6 7 6 5 7 9 8 15 15 12 16 15 15 16 15 14 15
4 4 4 5 6 6 6 6 7 7 7 8 8 8 9 7 9 8 6 6 5 5 2 4 4 5 4 8 8 9 7 7 8 12 13 16 16 16 16 16 16 14 14
3 3 3 4 5 5 5 5 5 6 6 6 7 7 7 8 8 6 5 5 5 4 4 2 3 3 2 4 5 6 7 9 8 9 10 15 17 16 15 15 15 15 17
3 2 2 4 4 5 4 4 3 4 5 5 5 5 5 6 7 8 6 6 4 4 5 5 5 3 2 4 4 7 8 8 8 4 8 13 15 14 14 15 13 14 18
3 3 2 2 4 4 3 5 4 3 3 5 5 5 6 8 9 8 6 6 4 3 3 3 5 5 6 7 8 6 7 8 9 2 9 8 9 8 8 11 12 18 19
4 4 3 3 3 3 6 8 5 1 3 4 5 6 6 7 8 11 11 11 8 6 6 3 5 6 6 6 4 5 5 6 5 1 8 9 7 6 7 9 18 18 16
4 5 4 4 4 4 7 7 1 1 3 4 6 6 6 4 6 7 10 11 10 12 10 8 8 7 8 8 7 8 6 4 6 7 7 8 5 8 9 11 18 14 11
6 5 5 4 5 4 5 6 4 1 4 5 6 6 6 6 6 10 9 6 7 7 8 6 8 8 8 9 9 9 7 6 6 6 4 6 5 8 10 9 15 11 14
5 6 4 5 5 6 7 6 5 2 4 6 6 6 6 7 11 14 9 8 8 8 8 13 14 15 13 14 12 2 5 6 7 6 3 3 4 9 8 9 6 10 21
6 5 5 5 7 6 8 7 6 3 5 5 6 6 9 11 14 14 8 9 9 10 10 9 7 7 8 9 13 9 7 8 7 5 2 4 7 5 6 4 6 10 10
Wind_Direction
320 322 321 320 316 314 308 305 299 295 291 281 274 264 258 245 242 238 243 212 220 226 236 242 241 236 225 222 226 227 223 224 227 225 222 223 222 223 223 222 220 219 216
334 334 330 327 321 319 314 307 303 297 289 284 279 268 262 252 240 239 237 226 222 225 229 237 243 242 237 229 228 228 226 224 228 228 227 226 225 227 228 228 228 228 227
355 344 335 331 327 324 314 306 291 283 284 282 273 262 258 256 246 238 237 230 223 219 222 227 235 243 243 239 235 229 222 223 225 226 226 225 224 225 228 230 229 230 230
11 355 345 341 338 329 321 309 302 292 284 280 273 267 257 250 243 239 232 235 231 229 217 225 224 229 236 237 234 236 230 226 218 222 224 224 224 223 224 228 229 229 231
4 355 343 329 333 325 321 314 309 296 283 281 279 275 257 248 249 243 231 228 230 226 226 220 224 225 232 236 235 235 236 233 233 230 226 224 224 225 224 226 229 228 229
1 356 346 345 342 328 320 320 313 301 288 285 280 276 272 258 250 241 233 223 225 226 224 223 218 225 230 239 230 227 230 236 241 243 246 245 237 233 230 230 230 231 230
4 355 353 343 339 341 328 320 309 303 295 283 280 274 262 252 255 241 220 225 225 229 220 214 215 213 209 219 213 210 214 221 233 261 271 277 273 257 245 237 235 232 232
9 7 357 350 349 335 341 341 334 321 301 293 283 286 281 261 238 231 219 223 227 219 216 213 210 214 214 218 216 214 219 226 233 235 238 258 283 279 268 255 246 242 237
16 9 359 349 345 347 345 342 348 341 322 310 282 269 280 246 262 205 224 227 222 225 224 217 206 210 219 222 215 215 214 224 235 240 236 243 256 268 275 272 260 256 247
7 358 356 354 352 350 353 355 354 4 346 330 327 273 267 259 281 282 225 243 244 249 241 226 215 217 223 223 222 213 209 215 231 242 245 242 241 248 257 263 262 257 252
10 5 357 356 356 356 354 355 0 11 7 336 331 335 329 313 268 280 283 267 251 236 230 232 219 219 214 219 229 241 223 233 246 248 244 248 247 245 248 250 250 257 259
0 2 355 353 351 354 356 358 355 355 12 6 347 1 1 358 351 334 332 346 332 339 11 6 349 18 48 51 45 60 58 57 52 11 321 295 284 270 273 283 275 254 249
355 357 358 358 357 354 351 353 355 359 360 8 360 355 15 15 2 340 358 326 314 5 88 77 39 18 30 20 22 6 44 24 38 27 30 19 8 358 340 311 288 279 260
346 354 353 355 358 1 0 360 359 359 358 357 1 4 34 13 9 18 19 342 313 336 82 70 68 64 25 349 12 3 16 26 25 29 23 11 0 352 341 339 320 296 287
346 352 351 353 356 6 9 8 11 8 6 3 5 12 12 6 4 14 23 25 350 357 19 44 36 48 48 344 15 348 13 11 13 15 13 2 352 21 14 11 357 341 304
345 345 348 354 355 4 8 14 13 9 13 13 15 17 18 6 10 14 18 10 17 12 308 41 53 37 32 23 6 348 354 352 9 3 1 353 9 16 5 359 359 3 357
336 346 342 344 352 356 5 10 13 17 17 11 11 11 11 7 13 12 20 24 28 15 348 5 24 28 20 32 9 343 1 359 356 1 355 8 14 359 351 347 345 351 355
324 329 339 344 350 350 353 2 8 8 14 17 14 11 6 2 12 11 17 23 33 38 13 357 329 10 350 12 360 4 355 354 350 358 20 9 359 359 350 347 344 343 346
271 312 331 341 339 334 335 344 352 4 6 11 8 8 8 6 8 1 3 8 9 11 17 16 349 4 319 353 346 1 358 349 351 357 12 1 354 353 347 347 347 347 349
245 280 318 320 321 318 311 317 320 345 353 355 3 4 2 2 359 355 355 343 352 358 358 353 346 334 313 334 349 351 350 355 339 349 357 352 344 346 346 344 341 342 341
219 218 260 291 310 307 306 314 271 291 329 334 341 349 350 344 349 347 341 337 302 308 320 327 326 325 331 339 348 346 336 333 333 351 344 344 338 342 343 336 331 333 328
229 230 214 243 283 288 297 306 354 285 311 317 321 326 329 330 336 337 338 340 339 309 285 269 289 292 301 303 294 307 312 332 330 294 338 321 326 321 329 326 327 328 326
210 235 242 235 249 265 286 311 72 33 325 319 316 318 320 328 335 325 321 327 328 326 321 313 288 287 294 297 301 296 289 285 294 306 321 309 325 313 325 321 320 322 350
209 216 229 245 268 266 275 297 306 302 309 307 303 305 303 309 318 314 303 308 310 309 306 303 292 286 281 283 273 274 287 292 285 288 303 297 314 307 316 306 309 312 337
203 213 215 222 236 263 263 271 290 250 286 295 298 298 290 301 310 311 314 309 304 297 294 296 297 296 294 304 307 270 280 294 300 302 304 285 312 312 304 295 313 314 322
203 208 228 227 238 247 267 267 279 262 280 286 289 284 289 303 309 311 309 304 306 305 305 299 295 283 289 288 291 289 286 269 280 290 207 267 308 327 314 292 319 314 313